Regional Weather Roundup
Issued by NWS

Home | Current Version | Previous Version | Text Only | Print | Product List | Glossary On
Versions: 1 2 3 4 5 6 7 8 9 10 11 12 13 14 15 16 17 18 19 20 21 22 23 24 25 26 27 28 29 30 31 32 33 34 35 36 37 38 39 40 41 42 43 44 45 46 47 48 49 50
196
ASUS44 KLIX 011101
RWRLA
LOUISIANA WEATHER ROUNDUP
NATIONAL WEATHER SERVICE NEW ORLEANS LA
500 AM CST SUN FEB 01 2015

NOTE: "FAIR" INDICATES FEW OR NO CLOUDS BELOW 12,000 FEET WITH NO
      SIGNIFICANT WEATHER AND/OR OBSTRUCTIONS TO VISIBILITY.
      SKY/WX - SKY CONDITION AND SIGNIFICANT WEATHER.
      TMP - AIR TEMPERATURE.    DP   - DEWPOINT TEMPERATURE.
      RH  - RELATIVE HUMIDITY.  PRES - PRESSURE.
      HX  - HEAT INDEX.         WCI  - WIND CHILL INDEX.

*  THESE STATIONS ARE NOT NWS OR FAA STATIONS AND ARE NOT UNDER
   NWS QUALITY CONTROL.

LAZ040-048-061>063-065-066-069-011200-
SOUTHEAST LOUISIANA

CITY           SKY/WX    TMP DP  RH WIND       PRES   REMARKS
N.O. AUDUBON   NOT AVBL
N.O. INTL ARPT CLOUDY    62  54  74 SE5       30.02S
N.O. LAKEFRONT CLOUDY    63  54  72 SE6       30.02F
N.O. DOWNTOWN* NOT AVBL
SLIDELL        CLOUDY    61  54  77 SE6       30.03S
BATON ROUGE    LGT RAIN  58  53  84 SE16      29.97F
BOOTHVILLE     PTCLDY    59  55  87 SE7       30.03F
BELLE CHASSE   CLOUDY    63  54  72 SE9       30.01F
BOGALUSA*        N/A     58  51  79 SE3       30.05F
GALLIANO*      NOT AVBL
NEW ROADS*     NOT AVBL
GONZALES*      NOT AVBL
HAMMOND*       NOT AVBL
HOUMA*         LGT RAIN  60  60  98 CALM      30.03R
PORT FOURCHON*   N/A     68  61  77 SE10      30.03S

$$

LAZ041-044-053-054-011200-
SOUTHWEST LOUISIANA

CITY           SKY/WX    TMP DP  RH WIND       PRES   REMARKS
LAKE CHARLES   MOCLDY    55  54  96 CALM      29.95F FOG
LAFAYETTE      MOCLDY    59  56  89 CALM      29.97S
PATTERSON      CLOUDY    61  57  88 SE10      29.98F
SALT POINT       N/A     61  60  97 SE9       29.96F
NEW IBERIA     MOCLDY    61  58  90 SE12      29.98R
CHENAULT AIRPK NOT AVBL

$$

LAZ027-028-011200-
CENTRAL LOUISIANA

CITY           SKY/WX    TMP DP  RH WIND       PRES   REMARKS
FORT POLK      NOT AVBL
ALEXANDRIA INT CLOUDY    55  52  89 CALM      29.96R
ALEXANDRIA     CLOUDY    56  52  86 CALM      29.97R

$$

LAZ001-002-011200-
NORTHWEST LOUISIANA

CITY           SKY/WX    TMP DP  RH WIND       PRES   REMARKS
SHREVEPORT     CLOUDY    56  53  90 S13       29.90S
BARKSDALE AFB  CLOUDY    54  53  97 S12       29.90F
DTN SHREVEPORT LGT RAIN  55  51  86 S10       29.90F

$$

LAZ014-016-011200-
NORTHEAST LOUISIANA

CITY           SKY/WX    TMP DP  RH WIND       PRES   REMARKS
MONROE         CLOUDY    53  50  89 S9        29.97R
TALLULAH       LGT RAIN  52  49  89 SE15      29.96F

$$




USA.gov is the U.S. government's official web portal to all federal, state and local government web resources and services.